QPF
0.07 0.06 0.06 0.05 0.06 0.06 0.06 0.07 0.08 0.06 0.05 0.06 0.06 0.06 0.04 0.04 0.04 0.04 0.05 0.05 0.04 0.04 0.05 0.05 0.06 0.07 0.08 0.11 0.11 0.11 0.09 0.07 0.07 0.06 0.05 0.04 0.04 0.03
0.07 0.05 0.05 0.04 0.05 0.05 0.05 0.05 0.06 0.07 0.06 0.05 0.06 0.05 0.05 0.03 0.04 0.04 0.05 0.05 0.04 0.04 0.05 0.04 0.04 0.05 0.05 0.06 0.10 0.11 0.09 0.07 0.06 0.05 0.04 0.04 0.04 0.03
0.07 0.07 0.06 0.06 0.06 0.05 0.06 0.05 0.06 0.06 0.07 0.09 0.09 0.06 0.06 0.05 0.04 0.04 0.03 0.03 0.03 0.04 0.05 0.05 0.04 0.03 0.03 0.04 0.04 0.06 0.08 0.08 0.06 0.06 0.05 0.05 0.04 0.03
0.07 0.08 0.06 0.06 0.06 0.06 0.06 0.05 0.05 0.06 0.07 0.07 0.08 0.08 0.06 0.05 0.04 0.04 0.02 0.01 0.02 0.03 0.05 0.05 0.04 0.03 0.03 0.03 0.03 0.04 0.06 0.06 0.06 0.05 0.05 0.04 0.04 0.03
0.06 0.07 0.06 0.06 0.06 0.06 0.05 0.04 0.04 0.05 0.07 0.07 0.06 0.07 0.06 0.06 0.06 0.05 0.03 0.03 0.02 0.03 0.04 0.04 0.04 0.04 0.03 0.03 0.03 0.03 0.03 0.04 0.05 0.04 0.04 0.04 0.03 0.03
0.06 0.07 0.07 0.06 0.06 0.06 0.05 0.05 0.04 0.04 0.05 0.06 0.06 0.06 0.06 0.07 0.08 0.07 0.06 0.06 0.04 0.03 0.03 0.02 0.02 0.02 0.03 0.03 0.02 0.02 0.02 0.02 0.02 0.02 0.03 0.03 0.03 0.03
0.04 0.04 0.05 0.05 0.04 0.05 0.04 0.04 0.04 0.04 0.04 0.05 0.06 0.06 0.06 0.07 0.07 0.07 0.07 0.06 0.05 0.04 0.04 0.03 0.02 0.01 0.01 0.01 0.02 0.02 0.02 0.02 0.02 0.02 0.02 0.02 0.01 0.01
0.03 0.03 0.03 0.03 0.03 0.02 0.02 0.02 0.03 0.03 0.03 0.04 0.04 0.04 0.05 0.05 0.06 0.07 0.07 0.07 0.05 0.06 0.06 0.04 0.03 0.03 0.02 0.02 0.02 0.02 0.02 0.02 0.02 0.02 0.02 0.02 0.02 0.02
0.02 0.02 0.02 0.02 0.02 0.02 0.02 0.02 0.02 0.03 0.03 0.03 0.03 0.03 0.04 0.04 0.05 0.06 0.07 0.07 0.06 0.06 0.08 0.05 0.04 0.04 0.03 0.03 0.04 0.03 0.02 0.02 0.02 0.02 0.02 0.02 0.02 0.02
0.01 0.01 0.02 0.02 0.02 0.02 0.02 0.02 0.02 0.02 0.02 0.02 0.03 0.03 0.03 0.04 0.05 0.05 0.06 0.06 0.07 0.06 0.06 0.05 0.04 0.05 0.07 0.06 0.05 0.05 0.03 0.02 0.02 0.02 0.02 0.02 0.03 0.03
0.01 0.01 0.01 0.02 0.03 0.02 0.03 0.03 0.02 0.02 0.02 0.02 0.02 0.03 0.03 0.03 0.04 0.05 0.04 0.05 0.06 0.05 0.05 0.05 0.05 0.06 0.09 0.09 0.07 0.06 0.04 0.03 0.02 0.02 0.02 0.02 0.02 0.03
0.02 0.02 0.02 0.01 0.02 0.02 0.03 0.04 0.03 0.03 0.02 0.01 0.02 0.04 0.04 0.04 0.03 0.04 0.04 0.04 0.04 0.04 0.04 0.04 0.04 0.06 0.08 0.09 0.08 0.07 0.05 0.04 0.03 0.02 0.02 0.03 0.03 0.03
0.03 0.03 0.03 0.02 0.01 0.02 0.03 0.03 0.04 0.04 0.03 0.02 0.03 0.05 0.05 0.05 0.05 0.05 0.06 0.06 0.05 0.04 0.03 0.04 0.04 0.04 0.06 0.08 0.09 0.08 0.06 0.06 0.04 0.03 0.03 0.03 0.04 0.03
0.03 0.03 0.03 0.03 0.02 0.02 0.02 0.03 0.04 0.05 0.04 0.03 0.03 0.03 0.03 0.04 0.05 0.05 0.06 0.07 0.07 0.07 0.07 0.07 0.05 0.04 0.04 0.06 0.07 0.08 0.07 0.06 0.05 0.04 0.04 0.04 0.05 0.04
0.02 0.02 0.03 0.03 0.03 0.02 0.02 0.03 0.05 0.05 0.05 0.04 0.04 0.03 0.03 0.03 0.05 0.06 0.06 0.06 0.07 0.07 0.08 0.10 0.07 0.05 0.04 0.04 0.04 0.06 0.08 0.08 0.06 0.04 0.03 0.03 0.04 0.05
0.01 0.01 0.02 0.02 0.02 0.03 0.04 0.04 0.04 0.04 0.05 0.05 0.05 0.04 0.04 0.04 0.04 0.04 0.05 0.05 0.06 0.06 0.06 0.07 0.08 0.08 0.07 0.05 0.04 0.04 0.05 0.07 0.07 0.06 0.05 0.04 0.04 0.04
0.01 0.01 0.01 0.01 0.01 0.02 0.04 0.04 0.05 0.05 0.06 0.06 0.05 0.05 0.04 0.04 0.04 0.04 0.05 0.05 0.06 0.06 0.06 0.06 0.08 0.09 0.08 0.06 0.06 0.04 0.04 0.05 0.05 0.06 0.07 0.05 0.04 0.05
0.00 0.01 0.02 0.02 0.02 0.02 0.03 0.04 0.05 0.06 0.07 0.06 0.05 0.05 0.05 0.05 0.05 0.05 0.04 0.04 0.05 0.05 0.06 0.06 0.08 0.09 0.07 0.07 0.07 0.06 0.05 0.04 0.04 0.05 0.06 0.06 0.05 0.05
0.01 0.01 0.02 0.02 0.02 0.02 0.03 0.04 0.05 0.05 0.06 0.06 0.06 0.06 0.07 0.07 0.07 0.06 0.06 0.06 0.06 0.06 0.06 0.06 0.07 0.08 0.08 0.07 0.07 0.07 0.06 0.05 0.05 0.05 0.05 0.05 0.04 0.03
0.01 0.02 0.02 0.03 0.02 0.02 0.03 0.03 0.04 0.04 0.05 0.06 0.07 0.07 0.07 0.07 0.06 0.06 0.05 0.07 0.07 0.06 0.06 0.06 0.07 0.08 0.09 0.09 0.08 0.08 0.08 0.07 0.06 0.06 0.04 0.03 0.03 0.03
0.01 0.01 0.02 0.03 0.03 0.03 0.02 0.02 0.03 0.03 0.04 0.05 0.06 0.07 0.06 0.06 0.05 0.05 0.05 0.05 0.06 0.05 0.05 0.05 0.06 0.08 0.08 0.09 0.09 0.09 0.08 0.07 0.06 0.06 0.05 0.04 0.04 0.03
0.01 0.01 0.01 0.02 0.02 0.03 0.02 0.02 0.01 0.03 0.04 0.05 0.04 0.04 0.05 0.06 0.06 0.06 0.05 0.05 0.05 0.05 0.04 0.04 0.06 0.07 0.07 0.09 0.09 0.09 0.09 0.08 0.09 0.08 0.06 0.05 0.04 0.04
0.01 0.01 0.01 0.01 0.01 0.01 0.01 0.01 0.02 0.03 0.04 0.04 0.03 0.03 0.04 0.04 0.05 0.06 0.06 0.05 0.04 0.04 0.04 0.05 0.05 0.06 0.07 0.07 0.08 0.08 0.08 0.09 0.10 0.09 0.08 0.06 0.05 0.04
MSLP
1012.98 1013.46 1013.80 1014.03 1014.16 1014.20 1014.19 1014.16 1014.12 1014.10 1014.08 1014.10 1014.13 1014.20 1014.29 1014.41 1014.56 1014.75 1014.97 1015.21 1015.47 1015.74 1016.00 1016.24 1016.47 1016.66 1016.83 1016.97 1017.11 1017.24 1017.37 1017.51 1017.65 1017.79 1017.92 1018.04 1018.14 1018.22
1012.65 1013.06 1013.35 1013.53 1013.64 1013.68 1013.69 1013.69 1013.70 1013.73 1013.78 1013.85 1013.94 1014.03 1014.13 1014.25 1014.37 1014.51 1014.68 1014.86 1015.06 1015.28 1015.51 1015.73 1015.95 1016.15 1016.33 1016.49 1016.65 1016.79 1016.94 1017.08 1017.23 1017.36 1017.49 1017.60 1017.69 1017.76
1012.27 1012.61 1012.85 1013.02 1013.12 1013.18 1013.24 1013.30 1013.38 1013.48 1013.61 1013.75 1013.88 1014.01 1014.12 1014.22 1014.31 1014.39 1014.48 1014.59 1014.72 1014.86 1015.03 1015.20 1015.38 1015.56 1015.74 1015.90 1016.06 1016.22 1016.37 1016.52 1016.67 1016.81 1016.94 1017.05 1017.15 1017.22
1011.87 1012.15 1012.36 1012.52 1012.64 1012.75 1012.87 1013.00 1013.16 1013.35 1013.56 1013.76 1013.95 1014.11 1014.23 1014.31 1014.35 1014.37 1014.38 1014.40 1014.43 1014.48 1014.57 1014.67 1014.79 1014.93 1015.07 1015.21 1015.36 1015.52 1015.67 1015.83 1015.99 1016.14 1016.29 1016.42 1016.53 1016.63
1011.47 1011.71 1011.91 1012.08 1012.24 1012.40 1012.58 1012.80 1013.04 1013.31 1013.58 1013.85 1014.08 1014.26 1014.38 1014.44 1014.44 1014.40 1014.34 1014.26 1014.20 1014.16 1014.14 1014.16 1014.20 1014.26 1014.35 1014.45 1014.57 1014.71 1014.86 1015.03 1015.20 1015.38 1015.56 1015.72 1015.87 1016.00
1011.12 1011.34 1011.54 1011.73 1011.92 1012.13 1012.38 1012.65 1012.96 1013.29 1013.62 1013.92 1014.18 1014.38 1014.50 1014.55 1014.52 1014.43 1014.30 1014.15 1014.00 1013.87 1013.76 1013.68 1013.63 1013.61 1013.63 1013.68 1013.75 1013.86 1014.00 1014.17 1014.36 1014.57 1014.79 1015.00 1015.20 1015.37
1010.85 1011.05 1011.25 1011.46 1011.68 1011.92 1012.21 1012.52 1012.87 1013.23 1013.58 1013.91 1014.18 1014.38 1014.50 1014.54 1014.49 1014.38 1014.22 1014.02 1013.81 1013.61 1013.42 1013.26 1013.12 1013.03 1012.96 1012.94 1012.96 1013.03 1013.15 1013.32 1013.53 1013.77 1014.03 1014.29 1014.54 1014.75
1010.65 1010.84 1011.04 1011.25 1011.49 1011.75 1012.04 1012.37 1012.72 1013.07 1013.42 1013.74 1014.01 1014.21 1014.33 1014.37 1014.33 1014.22 1014.05 1013.84 1013.61 1013.37 1013.13 1012.91 1012.71 1012.53 1012.40 1012.31 1012.27 1012.29 1012.38 1012.53 1012.74 1013.00 1013.30 1013.60 1013.88 1014.13
1010.50 1010.68 1010.88 1011.08 1011.32 1011.57 1011.85 1012.15 1012.47 1012.80 1013.11 1013.40 1013.64 1013.84 1013.96 1014.01 1013.99 1013.91 1013.77 1013.58 1013.37 1013.13 1012.88 1012.63 1012.38 1012.16 1011.96 1011.81 1011.71 1011.68 1011.72 1011.85 1012.04 1012.30 1012.60 1012.92 1013.23 1013.50
1010.33 1010.52 1010.71 1010.91 1011.13 1011.36 1011.60 1011.86 1012.13 1012.40 1012.66 1012.90 1013.12 1013.28 1013.41 1013.47 1013.49 1013.45 1013.36 1013.23 1013.06 1012.86 1012.63 1012.39 1012.13 1011.88 1011.65 1011.45 1011.30 1011.21 1011.20 1011.28 1011.44 1011.67 1011.95 1012.25 1012.55 1012.83
1010.12 1010.30 1010.50 1010.69 1010.89 1011.10 1011.30 1011.51 1011.72 1011.92 1012.12 1012.31 1012.47 1012.61 1012.73 1012.81 1012.85 1012.86 1012.83 1012.76 1012.66 1012.51 1012.34 1012.13 1011.90 1011.66 1011.41 1011.18 1010.99 1010.86 1010.80 1010.81 1010.91 1011.08 1011.31 1011.57 1011.84 1012.08
1009.81 1010.01 1010.21 1010.41 1010.60 1010.78 1010.95 1011.11 1011.26 1011.40 1011.53 1011.66 1011.77 1011.88 1011.98 1012.05 1012.12 1012.16 1012.18 1012.18 1012.14 1012.06 1011.95 1011.80 1011.62 1011.41 1011.18 1010.96 1010.75 1010.58 1010.47 1010.42 1010.45 1010.54 1010.70 1010.89 1011.09 1011.28
1009.41 1009.63 1009.85 1010.05 1010.24 1010.40 1010.54 1010.66 1010.76 1010.85 1010.93 1011.00 1011.06 1011.13 1011.19 1011.26 1011.32 1011.38 1011.43 1011.47 1011.49 1011.48 1011.44 1011.36 1011.24 1011.08 1010.90 1010.70 1010.50 1010.32 1010.17 1010.07 1010.03 1010.04 1010.11 1010.21 1010.33 1010.46
1008.93 1009.17 1009.41 1009.62 1009.80 1009.96 1010.08 1010.17 1010.24 1010.28 1010.31 1010.34 1010.36 1010.38 1010.40 1010.44 1010.48 1010.53 1010.59 1010.65 1010.70 1010.74 1010.76 1010.75 1010.70 1010.62 1010.51 1010.37 1010.20 1010.04 1009.88 1009.75 1009.64 1009.58 1009.56 1009.57 1009.61 1009.66
1008.41 1008.66 1008.90 1009.11 1009.28 1009.43 1009.53 1009.60 1009.64 1009.66 1009.65 1009.64 1009.63 1009.61 1009.60 1009.60 1009.61 1009.64 1009.68 1009.73 1009.80 1009.87 1009.94 1009.99 1010.03 1010.03 1010.00 1009.93 1009.84 1009.71 1009.57 1009.43 1009.29 1009.17 1009.08 1009.01 1008.97 1008.94
1007.86 1008.11 1008.33 1008.51 1008.67 1008.78 1008.86 1008.90 1008.92 1008.92 1008.91 1008.88 1008.84 1008.80 1008.76 1008.73 1008.71 1008.71 1008.73 1008.77 1008.83 1008.92 1009.02 1009.13 1009.24 1009.33 1009.39 1009.41 1009.40 1009.34 1009.24 1009.12 1008.97 1008.82 1008.67 1008.54 1008.43 1008.34
1007.28 1007.49 1007.67 1007.80 1007.91 1007.97 1008.01 1008.03 1008.04 1008.03 1008.01 1007.98 1007.95 1007.92 1007.88 1007.84 1007.80 1007.78 1007.78 1007.81 1007.87 1007.96 1008.09 1008.24 1008.41 1008.58 1008.72 1008.84 1008.91 1008.93 1008.89 1008.80 1008.67 1008.51 1008.33 1008.15 1007.98 1007.84
1006.64 1006.78 1006.88 1006.94 1006.97 1006.97 1006.96 1006.94 1006.93 1006.92 1006.92 1006.92 1006.93 1006.93 1006.92 1006.91 1006.90 1006.89 1006.90 1006.92 1006.99 1007.09 1007.24 1007.42 1007.63 1007.85 1008.07 1008.26 1008.40 1008.49 1008.51 1008.46 1008.35 1008.19 1008.00 1007.79 1007.59 1007.40
1005.85 1005.91 1005.92 1005.89 1005.82 1005.75 1005.68 1005.63 1005.60 1005.61 1005.64 1005.70 1005.77 1005.85 1005.92 1005.98 1006.03 1006.07 1006.11 1006.16 1006.24 1006.36 1006.52 1006.72 1006.95 1007.20 1007.46 1007.69 1007.89 1008.02 1008.08 1008.07 1007.98 1007.83 1007.62 1007.40 1007.16 1006.94
1004.86 1004.84 1004.75 1004.62 1004.47 1004.32 1004.20 1004.12 1004.09 1004.13 1004.21 1004.35 1004.52 1004.70 1004.88 1005.05 1005.20 1005.33 1005.45 1005.56 1005.68 1005.82 1005.99 1006.19 1006.42 1006.67 1006.93 1007.17 1007.37 1007.52 1007.59 1007.59 1007.51 1007.35 1007.14 1006.89 1006.63 1006.38
1003.61 1003.51 1003.35 1003.15 1002.94 1002.74 1002.58 1002.49 1002.48 1002.55 1002.71 1002.94 1003.22 1003.53 1003.85 1004.16 1004.44 1004.69 1004.91 1005.10 1005.27 1005.44 1005.62 1005.82 1006.03 1006.25 1006.47 1006.67 1006.85 1006.97 1007.02 1007.00 1006.91 1006.75 1006.52 1006.26 1005.98 1005.70
1002.09 1001.96 1001.77 1001.53 1001.29 1001.08 1000.92 1000.85 1000.87 1001.00 1001.24 1001.56 1001.96 1002.41 1002.88 1003.33 1003.76 1004.14 1004.48 1004.76 1005.00 1005.21 1005.39 1005.57 1005.74 1005.91 1006.07 1006.21 1006.32 1006.38 1006.39 1006.33 1006.21 1006.03 1005.79 1005.52 1005.22 1004.92
1000.36 1000.25 1000.07 999.86 999.65 999.47 999.35 999.32 999.40 999.59 999.91 1000.33 1000.84 1001.41 1002.00 1002.60 1003.16 1003.67 1004.12 1004.49 1004.80 1005.05 1005.24 1005.40 1005.52 1005.63 1005.71 1005.77 1005.79 1005.78 1005.73 1005.63 1005.48 1005.27 1005.02 1004.74 1004.44 1004.14
Thickness
5667 5665 5662 5661 5660 5660 5658 5656 5651 5649 5651 5657 5658 5661 5663 5663 5663 5663 5663 5664 5664 5664 5665 5666 5667 5668 5668 5669 5670 5670 5670 5670 5670 5670 5669 5669 5668 5668
5663 5660 5658 5657 5656 5656 5655 5654 5651 5647 5646 5650 5652 5655 5655 5657 5656 5657 5656 5655 5656 5657 5658 5659 5661 5661 5662 5663 5664 5664 5665 5665 5665 5666 5666 5665 5665 5665
5659 5657 5654 5653 5651 5651 5650 5649 5647 5645 5642 5644 5647 5649 5649 5648 5648 5648 5649 5649 5649 5651 5651 5652 5654 5655 5655 5656 5657 5658 5659 5659 5660 5661 5661 5661 5661 5661
5655 5653 5651 5651 5648 5647 5645 5644 5643 5642 5639 5636 5638 5639 5640 5641 5641 5640 5641 5642 5643 5644 5645 5645 5646 5647 5648 5649 5650 5651 5652 5653 5654 5655 5656 5657 5656 5656
5651 5649 5648 5646 5644 5643 5641 5639 5638 5638 5636 5632 5632 5633 5633 5633 5632 5632 5633 5633 5635 5636 5637 5638 5639 5640 5641 5642 5643 5644 5645 5647 5647 5649 5650 5650 5651 5651
5647 5646 5644 5642 5640 5638 5636 5634 5633 5631 5629 5627 5626 5626 5625 5626 5624 5622 5622 5624 5625 5627 5629 5630 5631 5632 5633 5634 5635 5636 5638 5639 5640 5641 5643 5644 5644 5645
5642 5641 5640 5638 5636 5633 5631 5628 5626 5623 5622 5620 5618 5617 5616 5615 5614 5614 5614 5615 5616 5618 5618 5620 5622 5624 5624 5626 5627 5628 5630 5632 5634 5635 5636 5637 5637 5638
5636 5636 5635 5633 5631 5628 5625 5622 5620 5617 5615 5612 5609 5607 5607 5606 5606 5606 5605 5606 5606 5610 5609 5610 5613 5614 5616 5618 5620 5622 5623 5624 5626 5627 5629 5629 5630 5631
5632 5631 5630 5630 5626 5623 5620 5617 5614 5612 5609 5606 5603 5601 5600 5599 5598 5597 5597 5597 5598 5601 5601 5602 5605 5606 5609 5612 5613 5615 5616 5617 5618 5620 5621 5622 5623 5624
5628 5627 5625 5623 5621 5617 5615 5612 5609 5607 5605 5602 5599 5597 5595 5594 5592 5591 5590 5590 5592 5594 5595 5594 5597 5599 5603 5604 5607 5608 5609 5609 5611 5612 5613 5614 5615 5616
5624 5623 5621 5617 5615 5611 5609 5606 5603 5601 5600 5598 5595 5592 5589 5588 5585 5583 5583 5582 5583 5586 5588 5588 5590 5592 5594 5597 5599 5601 5601 5602 5603 5605 5606 5608 5609 5609
5619 5618 5615 5612 5608 5605 5602 5599 5596 5595 5594 5592 5590 5587 5585 5583 5581 5578 5577 5576 5576 5578 5582 5582 5583 5584 5585 5590 5592 5592 5593 5594 5596 5597 5599 5600 5601 5600
5613 5612 5609 5605 5602 5599 5596 5593 5591 5589 5588 5587 5585 5583 5581 5580 5578 5576 5574 5573 5572 5573 5576 5576 5576 5577 5578 5580 5584 5586 5586 5588 5589 5590 5592 5593 5594 5594
5606 5605 5602 5599 5596 5593 5591 5589 5587 5583 5583 5582 5580 5578 5577 5576 5575 5574 5573 5571 5571 5571 5572 5571 5570 5571 5571 5572 5575 5579 5580 5582 5583 5584 5585 5586 5586 5587
5601 5599 5595 5593 5591 5588 5587 5585 5582 5580 5578 5576 5575 5574 5574 5573 5572 5571 5570 5569 5568 5568 5568 5568 5567 5567 5566 5567 5569 5571 5573 5575 5576 5578 5579 5579 5580 5580
5595 5593 5591 5589 5587 5585 5584 5581 5579 5576 5574 5572 5570 5570 5569 5568 5567 5566 5564 5563 5562 5563 5564 5565 5564 5563 5562 5563 5563 5565 5566 5568 5570 5571 5571 5572 5574 5575
5588 5588 5588 5586 5584 5583 5582 5580 5577 5573 5570 5568 5566 5565 5564 5563 5562 5561 5560 5559 5557 5558 5558 5559 5560 5560 5559 5558 5558 5559 5561 5562 5563 5564 5564 5566 5568 5570
5584 5585 5585 5583 5581 5579 5577 5575 5573 5570 5567 5564 5562 5561 5559 5558 5557 5556 5555 5554 5553 5554 5554 5554 5554 5552 5552 5554 5553 5554 5554 5556 5557 5558 5559 5559 5561 5563
5581 5582 5581 5579 5576 5574 5572 5570 5568 5566 5564 5562 5560 5558 5556 5554 5553 5552 5551 5550 5550 5550 5551 5551 5549 5548 5546 5547 5549 5549 5549 5550 5551 5551 5552 5553 5554 5557
5581 5580 5578 5575 5571 5569 5567 5565 5564 5562 5560 5558 5557 5555 5552 5551 5549 5548 5547 5546 5545 5545 5545 5546 5546 5545 5543 5542 5543 5544 5545 5546 5546 5545 5545 5546 5548 5550
5581 5578 5575 5572 5568 5566 5563 5561 5559 5557 5556 5554 5552 5550 5548 5546 5544 5543 5542 5540 5539 5539 5539 5540 5541 5541 5541 5540 5539 5539 5540 5540 5542 5541 5541 5541 5542 5543
5578 5576 5573 5569 5566 5563 5560 5558 5556 5554 5553 5550 5548 5546 5544 5542 5540 5539 5538 5536 5535 5534 5534 5535 5537 5536 5536 5535 5535 5534 5534 5536 5536 5537 5537 5538 5538 5539
5576 5573 5570 5567 5564 5560 5558 5555 5553 5551 5549 5546 5544 5543 5541 5539 5537 5535 5534 5532 5531 5530 5530 5530 5530 5530 5530 5530 5530 5530 5530 5531 5531 5531 5531 5533 5535 5537